THORAD DELTA 1 DEB, 8168

Orbit data source: Space-Track

THORAD DELTA 1 DEB, 8168 is space debris in SSO originally from a launch on Fri, 15 Nov 1974 UTC launched from the Air Force Western Test Range (AFWTR). Debris objects in space refer to the collection of defunct objects orbiting the Earth. Examples of debris include non-operational satellites, rocket bodies, and fragments generated from explosions, collisions, or faulty payload assembly.

Loading next visibility...
THORAD DELTA 1 DEB details
Identifier
8168, 1974-089AJ
Orbit
SSO
Last TLE update1 day ago
Origin
Flag of USGSFC (US)
ManufacturerUnknown
MissionSpacecraft
Bus & MotorUnknown
MassUnknown
Launch date (UTC)
1974-11-15 (50 years ago)
Launch vehicleUnknown
Launch site
Air Force Western Test Range (AFWTR)
Object type
Payload
Rocket body
Debris
Shape & HBRUnknown
Radar Cross Section0.280 m², Medium (>0.1 m² and < 1m²)

Expand to show TLE details & history

TLE from 1 day ago
0 THORAD DELTA 1 DEB
1 08168U 74089AJ  24360.46517285 -.00000006  00000-0  24984-3 0  9991
2 08168 101.8818 315.4076 0020570 232.1488 246.1451 12.52719540291089
Epoch: 2024-12-25T11:09Z
Definitive object data (Epoch: 2024-12-25T11:09:50.934Z)
Latitude59.79203°
Longitude-105.43651°
Altitude1,469.651 km
Speed7.131 km/s
True Right ascension10h 25m 56s
True Declination59° 39' 21"
Sunlit
Object was in daylight at TLE epoch
Visualization TLE readout
Latitude23.08414°
Longitude49.38339°
Altitude1,470.031 km
Speed7.123 km/s
Apparent Right ascension21h 37m 42s
Apparent Declination-4° 57' 03"
Sunlit
Object is in daylight
Visualization observer readout
Local Sidereal Time10:55:55
Azimuth31.877° NE
Elevation-50.844°
Doppler factor1
Orbital elements
Apogee altitude1,466.795 km
Perigee altitude1,434.588 km
Semi-major axis7,828.828 km
Eccentricity0.002057
Inclination101.8818°
RAAN315.4076°
Arg. of periapsis232.1488°
True anomaly245.92975°
Mean anomaly246.1451°
Eccentric anomaly246.0374°
Mean motion3.13327 °/min
BSTAR0.00024984
Orbital period114.9 mins
Loading maneuver chart data...

THORAD DELTA 1 DEB Visibility forecast

Observer location: undefined°, undefined

Span
Click to sort rows by Start time (UTC) header in descending order
Start Az.
Max El. time (UTC)
Max El. Az.
Max El.
End time (UTC)
End Az.
12 mins2024-12-26 12:02:32.957Z354.245° N2024-12-26 12:08:32.957Z306.925° NW21.931°2024-12-26 12:14:32.957Z259.158° W
10 mins2024-12-26 19:18:32.957Z93.162° ESE2024-12-26 19:22:32.957Z58.334° ENE22.733°2024-12-26 19:28:32.957Z7.956° NNE
15 mins2024-12-26 21:07:32.957Z166.587° S2024-12-26 21:14:32.957Z223.975° SW44.33°2024-12-26 21:22:32.957Z339.685° N
6 mins2024-12-26 23:06:32.957Z252.727° W2024-12-26 23:08:32.957Z268.032° W13.796°2024-12-26 23:12:32.957Z297.796° NW
13 mins2024-12-27 09:11:32.957Z40.458° NE2024-12-27 09:17:32.957Z99.19° ESE30.555°2024-12-27 09:24:32.957Z161.217° S
14 mins2024-12-27 11:03:32.957Z5.495° NNE2024-12-27 11:10:32.957Z293.955° NW37.706°2024-12-27 11:17:32.957Z226.184° WSW
|